C/2008 J4 ( McNaught )

Japanese version
Home page
Updated on June 21, 2008

---------------------------------------------------------------------

* Profile

Discovery Date May 10, 2008
Magnitude 16.5 mag
Discoverer R. H. McNaught (Siding Spring)

* Pictures

* Orbital Elements

T 2008 June 19.509 TT                                   MPC
q   0.44795              (2000.0)            P               Q
                   Peri.   93.393       +0.021567       -0.331510
                   Node   289.248       -0.332270       +0.887421
e   1.0            Incl.   87.502       +0.942938       +0.320290
From 22 observations 2008 May 10-25.

* Finding Charts

* Magnitudes Graph

        m1 = 16.0 + 5 log d + 10.0 log r

---------------------------------------------------------------------

The orbital elements are published on M.P.E.C. 2008-L32.
The charts are made with StellaNavigator Ver.8 (AstroArts).
The magnitudes graphs are made with Comet for Windows.

---------------------------------------------------------------------

Copyright(C) Seiichi Yoshida (comet@aerith.net). All rights reserved.